FW0810 Weather Reports


time (UTC)temp
C
wind
direction
speed
KPH
gust
KPH
rain 1hr
cm
rain 24hr
cm
rain mn
cm
humidity
%
barometer
mb
20260508212726 -17 0.0 0.0 0.00 1.30 1.30 1019.4
20260508212130 -17 0.0 0.0 0.00 1.30 1.30 1019.4
20260508211631 -17 0.0 0.0 0.00 1.30 1.30 1019.5
20260508211133 -17 0.0 0.0 0.00 1.30 1.30 1019.5
20260508210625 -17 0.0 0.0 0.00 1.30 1.30 1019.4
20260508205527 -17 0.0 0.0 0.00 1.30 1.30 1019.5
20260508205027 -17 0.0 0.0 0.00 1.30 1.30 1019.4
20260508204432 -17 0.0 0.0 0.00 1.30 1.30 1019.4
20260508203929 -17 0.0 0.0 0.00 1.30 1.30 1019.4
20260508203430 -17 0.0 0.0 0.00 1.30 1.30 1019.3
20260508202840 -17 0.0 0.0 0.00 1.30 1.30 1019.4
20260508202339 -17 0.0 0.0 0.00 1.30 1.30 1019.4
20260508201827 -17 0.0 0.0 0.00 1.30 1.30 1019.4
20260508201322 -17 0.0 0.0 0.00 1.30 1.30 1019.4
20260508200729 -17 0.0 0.0 0.00 1.30 1.30 1019.4
20260508195128 -17 0.0 0.0 0.00 1.30 1.30 1019.2
20260508194531 -17 0.0 0.0 0.00 1.30 1.30 1019.1
20260508194031 -17 0.0 0.0 0.00 1.30 1.30 1019.1
20260508193437 -17 0.0 0.0 0.00 1.30 1.30 1019.0
20260508192925 -17 0.0 0.0 0.00 1.30 1.30 1018.8
20260508192422 -17 0.0 0.0 0.00 1.30 1.30 1018.8
20260508191827 -17 0.0 0.0 0.00 1.30 1.30 1018.7
20260508185628 -17 0.0 0.0 0.00 1.30 1.30 1018.5
20260508185129 -17 0.0 0.0 0.00 1.30 1.30 1018.4
20260508184032 -17 0.0 0.0 0.00 1.30 1.30 1018.3
20260508183525 -17 0.0 0.0 0.00 1.30 1.30 1018.2
20260508182934 -17 0.0 0.0 0.00 1.30 1.30 1018.2
20260508181836 -17 0.0 0.0 0.00 1.30 1.30 1017.9
20260508181332 -17 0.0 0.0 0.00 1.30 1.30 1017.9
20260508180731 -17 0.0 0.0 0.00 1.30 1.30 1017.9
20260508180232 -17 0.0 0.0 0.00 1.30 1.30 1018.0
20260508175730 -17 0.0 0.0 0.03 1.30 1.30 1017.8
20260508175139 -17 0.0 0.0 0.05 1.30 1.30 1017.8
20260508174628 -17 0.0 0.0 0.05 1.30 1.30 1017.8
20260508173532 15 334 0.0 0.0 0.08 1.30 1.30 92 1017.9
20260508173021 15 334 0.0 0.0 0.10 1.30 1.30 92 1017.8
20260508172459 15 334 0.0 0.0 0.13 1.30 1.30 92 1017.8
20260508171957 15 335 0.0 0.0 0.15 1.30 1.30 92 1017.8
20260508171456 15 335 0.0 0.0 0.15 1.30 1.30 92 1017.8
20260508170956 15 335 0.0 0.0 0.18 1.30 1.30 92 1017.8
20260508165953 15 271 0.0 0.0 0.20 1.27 1.27 92 1017.6
20260508165452 15 271 0.0 4.8 0.23 1.27 1.27 92 1017.6
20260508164950 15 278 0.0 4.8 0.23 1.27 1.27 92 1017.6
20260508164450 15 264 0.0 0.0 0.23 1.24 1.24 92 1017.6
20260508163448 15 225 0.0 0.0 0.25 1.22 1.22 91 1017.7
20260508162951 15 224 0.0 0.0 0.28 1.19 1.19 91 1017.7
20260508162446 15 114 0.0 0.0 0.33 1.17 1.17 91 1017.7
20260508161947 15 114 0.0 0.0 0.36 1.17 1.17 91 1017.8
20260508161446 15 114 0.0 0.0 0.43 1.14 1.14 91 1017.8
20260508160948 15 114 0.0 0.0 0.48 1.12 1.12 91 1017.8
20260508160443 15 114 0.0 0.0 0.51 1.09 1.09 91 1017.8
20260508155442 15 114 0.0 0.0 0.61 1.07 1.07 91 1017.6
20260508154456 15 114 0.0 0.0 0.69 0.99 1.02 90 1017.5
20260508153940 15 114 0.0 0.0 0.71 0.99 0.99 90 1017.4
20260508153440 15 114 0.0 0.0 0.74 0.97 0.99 90 1017.5
20260508152942 15 114 0.0 0.0 0.76 0.91 0.94 90 1017.5
20260508152441 15 114 0.0 0.0 0.74 0.86 0.89 90 1017.4
20260508151952 15 114 0.0 0.0 0.71 0.79 0.79 89 1017.4
20260508151453 15 114 0.0 0.0 0.69 0.71 0.71 89 1017.4
20260508150940 15 114 0.0 0.0 0.61 0.64 0.64 90 1017.4
20260508150440 15 118 0.0 0.0 0.58 0.58 0.58 89 1017.3
20260508145939 15 118 0.0 0.0 0.51 0.51 0.51 89 1017.1
20260508145440 15 119 0.0 0.0 0.43 0.43 0.46 88 1017.1
20260508144941 15 119 0.0 0.0 0.38 0.38 0.41 87 1017.2
20260508144441 15 118 0.0 3.2 0.33 0.33 0.33 87 1017.3
20260508143438 15 92 4.8 16.1 0.20 0.20 0.23 84 1017.2
20260508142936 16 90 3.2 16.1 0.15 0.15 0.18 83 1017.0
20260508142436 16 104 1.6 11.3 0.13 0.13 0.13 81 1016.9
20260508141451 17 159 3.2 17.7 0.05 0.05 0.05 78 1016.6
20260508140936 18 79 4.8 17.7 0.03 0.03 0.03 75 1016.8
20260508140436 20 172 3.2 16.1 0.00 0.00 0.00 69 1016.5
20260508135938 20 149 1.6 16.1 0.00 0.00 0.00 65 1016.3
20260508135437 21 104 0.0 8.0 0.00 0.00 0.00 65 1016.1
20260508134935 21 323 1.6 8.0 0.00 0.00 0.00 65 1015.7
20260508134434 21 278 1.6 9.7 0.00 0.00 0.00 64 1015.6
20260508133936 21 359 3.2 9.7 0.00 0.00 0.00 64 1015.6
20260508133432 21 278 3.2 11.3 0.00 0.00 0.00 63 1015.5
20260508132432 21 284 3.2 11.3 0.00 0.00 0.00 61 1015.2
20260508130932 21 271 1.6 16.1 0.00 0.00 0.00 60 1015.3
20260508130434 21 288 3.2 16.1 0.00 0.00 0.00 60 1015.3
20260508125932 21 269 1.6 9.7 0.00 0.00 0.00 58 1015.3
20260508125430 21 351 1.6 6.4 0.00 0.00 0.00 57 1015.3
20260508124932 21 313 3.2 17.7 0.00 0.00 0.00 56 1015.3
20260508124429 22 294 4.8 17.7 0.00 0.00 0.00 56 1015.3
20260508123429 22 335 3.2 12.9 0.00 0.00 0.00 58 1015.2
20260508122924 22 343 3.2 12.9 0.00 0.00 0.00 57 1015.3
20260508122425 23 277 3.2 12.9 0.00 0.00 0.00 56 1015.2
20260508121924 23 323 1.6 9.7 0.00 0.00 0.00 55 1015.2
20260508121424 23 276 0.0 4.8 0.00 0.00 0.00 54 1015.2
20260508120924 23 96 0.0 4.8 0.00 0.00 0.00 52 1015.1
20260508120424 23 137 0.0 3.2 0.00 0.00 0.00 54 1015.1
20260508115923 24 137 0.0 3.2 0.00 0.00 0.00 52 1015.1
20260508115423 24 102 0.0 4.8 0.00 0.00 0.00 50 1015.1
20260508114922 24 102 0.0 4.8 0.00 0.00 0.00 50 1015.1
20260508114420 24 129 0.0 3.2 0.00 0.00 0.00 51 1015.0
20260508113917 24 129 0.0 6.4 0.00 0.00 0.00 50 1015.2
20260508113415 24 101 1.6 6.4 0.00 0.00 0.00 50 1015.2
20260508112914 24 112 0.0 6.4 0.00 0.00 0.00 52 1015.2
20260508112413 23 136 0.0 3.2 0.00 0.00 0.00 52 1015.1
20260508111909 23 105 1.6 6.4 0.00 0.00 0.00 55 1015.2
20260508111409 23 109 1.6 6.4 0.00 0.00 0.00 54 1015.2
20260508110907 23 100 0.0 4.8 0.00 0.00 0.00 53 1015.2
20260508110407 23 90 0.0 4.8 0.00 0.00 0.00 55 1015.2
20260508105907 23 127 0.0 8.0 0.00 0.00 0.00 56 1015.3
20260508105407 23 128 0.0 8.0 0.00 0.00 0.00 55 1015.3
20260508104358 23 91 1.6 9.7 0.00 0.00 0.00 56 1015.4
20260508103850 23 89 0.0 6.4 0.00 0.00 0.00 58 1015.4
20260508103343 23 108 0.0 6.4 0.00 0.00 0.00 57 1015.5
20260508102837 23 146 0.0 6.4 0.00 0.00 0.00 59 1015.5
20260508102332 22 161 0.0 6.4 0.00 0.00 0.00 58 1015.6
20260508101319 22 131 1.6 8.0 0.00 0.00 0.00 58 1015.6
20260508100815 22 159 1.6 8.0 0.00 0.00 0.00 57 1015.4
20260508095801 22 142 1.6 8.0 0.00 0.00 0.00 60 1015.4
20260508095256 22 68 1.6 11.3 0.00 0.00 0.00 56 1015.4
20260508094751 23 98 0.0 8.0 0.00 0.00 0.00 58 1015.4
20260508094245 23 104 1.6 11.3 0.00 0.00 0.00 58 1015.5
20260508093737 23 87 1.6 11.3 0.00 0.00 0.00 57 1015.3
20260508093232 23 76 0.0 8.0 0.00 0.00 0.00 59 1015.4
20260508092723 22 117 0.0 6.4 0.00 0.00 0.00 60 1015.4
20260508092220 22 124 1.6 8.0 0.00 0.00 0.00 61 1015.4
20260508091712 22 110 1.6 8.0 0.00 0.00 0.00 61 1015.4
20260508091204 22 92 1.6 6.4 0.00 0.00 0.00 61 1015.3
20260508090659 21 115 1.6 6.4 0.00 0.00 0.00 62 1015.4
20260508090153 21 115 0.0 6.4 0.00 0.00 0.00 63 1015.3
20260508085646 21 118 1.6 11.3 0.00 0.00 0.00 62 1015.3
20260508085141 21 104 1.6 11.3 0.00 0.00 0.00 62 1015.3
20260508084635 21 92 1.6 11.3 0.00 0.00 0.00 63 1015.3
20260508084130 21 86 3.2 11.3 0.00 0.00 0.00 62 1015.2
20260508082611 21 100 3.2 11.3 0.00 0.00 0.00 64 1015.1
20260508082105 21 119 3.2 11.3 0.00 0.00 0.00 64 1015.2
20260508081559 21 69 3.2 11.3 0.00 0.00 0.00 65 1015.2
20260508080559 21 136 3.2 9.7 0.00 0.00 0.00 64 1015.1
20260508075055 20 123 1.6 8.0 0.00 0.00 0.00 66 1015.0
20260508074555 20 115 1.6 9.7 0.00 0.00 0.00 67 1015.0
20260508074055 20 110 1.6 11.3 0.00 0.00 0.00 67 1015.0
20260508073557 20 88 1.6 11.3 0.00 0.00 0.00 67 1015.0
20260508073051 19 84 1.6 8.0 0.00 0.00 0.00 69 1014.8
20260508072551 19 127 1.6 6.4 0.00 0.00 0.00 70 1014.8
20260508071551 18 269 0.0 0.0 0.00 0.00 0.00 76 1014.8
20260508071049 17 270 0.0 0.0 0.00 0.00 0.00 78 1014.7
20260508070549 17 270 0.0 0.0 0.00 0.00 0.00 81 1014.8
20260508070101 16 270 0.0 0.0 0.00 0.00 0.00 83 1014.7
20260508065552 16 270 0.0 0.0 0.00 0.00 0.00 84 1014.7
20260508065049 16 270 0.0 0.0 0.00 0.00 0.00 85 1014.7
20260508064547 16 270 0.0 1.6 0.00 0.00 0.00 85 1014.7
20260508064043 15 276 0.0 4.8 0.00 0.00 0.00 86 1014.7
20260508063557 15 274 0.0 4.8 0.00 0.00 0.00 87 1014.6
20260508063041 15 273 0.0 1.6 0.00 0.00 0.00 87 1014.6
20260508062541 15 272 0.0 0.0 0.00 0.00 0.00 88 1014.6
20260508062041 14 272 0.0 0.0 0.00 0.00 0.00 88 1014.6
20260508061540 14 269 0.0 3.2 0.00 0.00 0.00 89 1014.5
20260508061037 13 269 0.0 3.2 0.00 0.00 0.00 89 1014.6
20260508060551 13 283 0.0 3.2 0.00 0.00 0.00 89 1014.6
20260508060037 13 285 0.0 4.8 0.00 0.00 0.00 89 1014.5
20260508055536 13 288 0.0 4.8 0.00 0.00 0.00 90 1014.5
20260508055035 13 264 0.0 1.6 0.00 0.00 0.00 90 1014.5
20260508054535 12 265 0.0 3.2 0.00 0.00 0.00 91 1014.4
20260508054037 12 266 0.0 6.4 0.00 0.00 0.00 91 1014.4
20260508053529 12 278 0.0 6.4 0.00 0.00 0.00 91 1014.5
20260508053029 12 281 0.0 4.8 0.00 0.00 0.00 91 1014.4
20260508052029 11 262 0.0 6.4 0.00 0.00 0.00 91 1014.4
20260508051531 11 263 1.6 9.7 0.00 0.00 0.00 91 1014.4
20260508051029 11 282 0.0 9.7 0.00 0.00 0.00 91 1014.4
20260508050030 11 283 0.0 4.8 0.00 0.00 0.00 91 1014.3
20260508045530 11 265 0.0 6.4 0.00 0.00 0.00 91 1014.3
20260508045026 11 278 0.0 6.4 0.00 0.00 0.00 91 1014.3
20260508044525 11 278 0.0 4.8 0.00 0.00 0.00 91 1014.3
20260508043525 10 286 0.0 4.8 0.00 0.00 0.00 91 1014.2
20260508043026 10 281 1.6 6.4 0.00 0.00 0.00 91 1014.2
20260508042525 10 279 1.6 8.0 0.00 0.00 0.00 90 1014.2
20260508041028 10 281 0.0 3.2 0.00 0.00 0.00 90 1014.1
20260508040522 10 286 0.0 3.2 0.00 0.00 0.00 91 1014.0
20260508040021 10 278 0.0 3.2 0.00 0.00 0.00 91 1014.1
20260508035523 10 274 1.6 6.4 0.00 0.00 0.00 91 1014.0
20260508034524 10 274 0.0 6.4 0.00 0.00 0.00 91 1014.0
20260508034018 10 279 1.6 6.4 0.00 0.00 0.00 91 1014.0
20260508033019 10 273 0.0 6.4 0.00 0.00 0.00 91 1013.9
20260508032517 10 273 0.0 4.8 0.00 0.00 0.00 90 1014.0
20260508031514 10 278 0.0 6.4 0.00 0.00 0.00 90 1013.9
20260508031012 10 284 1.6 6.4 0.00 0.00 0.00 90 1013.9
20260508030515 10 266 0.0 4.8 0.00 0.00 0.00 91 1013.9
20260508030013 10 278 0.0 3.2 0.00 0.00 0.00 91 1013.9
20260508025512 10 276 0.0 3.2 0.00 0.00 0.00 90 1014.0
20260508025009 10 269 0.0 0.0 0.00 0.00 0.00 90 1014.0
20260508024505 10 268 0.0 6.4 0.00 0.00 0.00 90 1013.9
20260508023958 10 267 0.0 6.4 0.00 0.00 0.00 90 1014.0
20260508023450 10 276 0.0 4.8 0.00 0.00 0.00 90 1014.1
20260508022944 10 280 1.6 8.0 0.00 0.00 0.00 90 1014.1
20260508022441 10 281 1.6 8.0 0.00 0.00 0.00 89 1014.1
20260508021933 10 279 0.0 3.2 0.00 0.00 0.00 89 1014.1
20260508021427 10 277 0.0 6.4 0.00 0.00 0.00 90 1014.1
20260508020920 10 278 0.0 6.4 0.00 0.00 0.00 89 1014.2
20260508020414 10 270 0.0 4.8 0.00 0.00 0.00 90 1014.2
20260508015908 11 266 0.0 3.2 0.00 0.00 0.00 90 1014.4
20260508015403 11 269 0.0 0.0 0.00 0.00 0.00 90 1014.5
20260508014858 11 269 0.0 0.0 0.00 0.00 0.00 90 1014.4
20260508014351 11 269 0.0 4.8 0.00 0.00 0.00 90 1014.5
20260508013844 11 273 0.0 4.8 0.00 0.00 0.00 90 1014.6
20260508013338 11 271 0.0 6.4 0.00 0.00 0.00 90 1014.7
20260508012845 11 278 0.0 6.4 0.00 0.00 0.00 90 1014.6
20260508012328 11 279 0.0 6.4 0.00 0.00 0.00 90 1014.7
20260508011825 11 280 0.0 6.4 0.00 0.00 0.00 90 1014.7
20260508010325 11 276 0.0 4.8 0.00 0.05 0.00 90 1014.9
20260508005820 11 273 0.0 9.7 0.00 0.08 0.00 90 1014.8
20260508005319 11 274 0.0 9.7 0.00 0.08 0.00 90 1014.8
20260508004816 10 274 0.0 4.8 0.00 0.08 0.00 90 1014.9
20260508004315 10 269 0.0 8.0 0.00 0.08 0.00 90 1014.8
20260508003813 10 285 0.0 8.0 0.00 0.08 0.00 90 1014.9
20260508003312 10 274 1.6 8.0 0.00 0.13 0.00 90 1015.0
20260508002811 10 277 1.6 8.0 0.00 0.15 0.00 90 1015.0
20260508002310 10 271 1.6 8.0 0.00 0.15 0.00 89 1015.1
20260508001809 10 274 1.6 8.0 0.00 0.18 0.00 89 1015.1
20260508001308 10 262 1.6 8.0 0.00 0.20 0.00 89 1015.2
20260508000307 11 267 0.0 6.4 0.00 0.23 0.00 89 1015.2
20260507235805 11 270 0.0 1.6 0.00 0.23 0.00 89 1015.2
20260507235307 11 267 0.0 3.2 0.00 0.23 0.00 89 1015.2
20260507233757 11 274 1.6 6.4 0.00 0.23 0.00 89 1015.4
20260507233252 11 270 0.0 6.4 0.00 0.23 0.00 89 1015.4
20260507232754 11 266 1.6 8.0 0.00 0.23 0.00 89 1015.4
20260507232252 11 281 1.6 8.0 0.00 0.25 0.00 88 1015.5
20260507231752 11 272 1.6 8.0 0.00 0.25 0.00 88 1015.5
20260507231251 11 279 0.0 8.0 0.00 0.25 0.00 88 1015.6
20260507230750 11 266 0.0 6.4 0.00 0.25 0.00 87 1015.7
20260507230249 11 270 1.6 8.0 0.00 0.25 0.00 87 1015.7
20260507225748 12 277 0.0 8.0 0.00 0.25 0.00 87 1016.1
20260507225247 12 265 0.0 6.4 0.00 0.25 0.00 88 1016.1
20260507224746 12 266 0.0 6.4 0.00 0.25 0.00 88 1016.3
20260507224246 11 266 0.0 4.8 0.00 0.25 0.00 88 1016.2
20260507223745 11 269 1.6 6.4 0.00 0.25 0.00 88 1016.3
20260507223242 11 263 1.6 6.4 0.00 0.25 0.00 88 1016.4
20260507222745 11 270 0.0 6.4 0.00 0.25 0.00 88 1016.3
20260507222242 11 264 0.0 6.4 0.00 0.25 0.00 88 1016.2
20260507221237 11 276 0.0 6.4 0.00 0.25 0.00 87 1016.1
20260507220749 11 281 1.6 6.4 0.00 0.25 0.00 87 1016.1
20260507215736 12 289 0.0 8.0 0.00 0.25 0.25 86 1016.1
20260507215237 12 272 1.6 8.0 0.00 0.25 0.25 85 1016.2
20260507214736 12 276 1.6 8.0 0.00 0.25 0.25 85 1016.0